This is the latest recevied weather packets stored in our database for station/object W4NRG-1. If no packets are shown the sender has not sent any weather packets the latest 1 day(s).
| Time | Temp. | Humidity | Pressure | Rain* | Wind** | Luminosity | Snow |
|---|---|---|---|---|---|---|---|
| 1778032052 | 23.33° C | 49% | 1013.4 hPa | 0 mm | 0.45 m/s, 308° | - | - |
| 1778031749 | 23.33° C | 49% | 1013.2 hPa | 0 mm | 1.79 m/s, 2° | - | - |
| 1778031446 | 23.33° C | 48% | 1013.1 hPa | 0 mm | 0.89 m/s, 349° | - | - |
| 1778031143 | 23.33° C | 47% | 1013 hPa | 0 mm | 1.79 m/s, 317° | - | - |
| 1778030839 | 23.33° C | 47% | 1013 hPa | 0 mm | 1.79 m/s, 328° | - | - |
| 1778030536 | 23.33° C | 47% | 1013 hPa | 0 mm | 0.45 m/s, 55° | - | - |
| 1778030234 | 23.33° C | 47% | 1012.9 hPa | 0 mm | 1.79 m/s, 333° | - | - |
| 1778029930 | 23.33° C | 47% | 1012.9 hPa | 0 mm | 0.89 m/s, 36° | - | - |
| 1778029628 | 23.33° C | 46% | 1012.6 hPa | 0 mm | 0.89 m/s, 341° | - | - |
| 1778029326 | 23.33° C | 46% | 1012.7 hPa | 0 mm | 0.89 m/s, 326° | - | - |
| 1778029022 | 23.89° C | 46% | 1012.7 hPa | 0 mm | 0 m/s | - | - |
| 1778028719 | 23.89° C | 45% | 1012.8 hPa | 0 mm | 2.68 m/s, 67° | - | - |
| 1778028415 | 23.89° C | 45% | 1012.6 hPa | 0 mm | 0.89 m/s, 70° | - | - |
| 1778028113 | 23.89° C | 44% | 1012.5 hPa | 0 mm | 2.24 m/s, 191° | - | - |
| 1778027809 | 24.44° C | 43% | 1012.6 hPa | 0 mm | 0.45 m/s, 63° | - | - |
| 1778027505 | 24.44° C | 43% | 1012.5 hPa | 0 mm | 0.45 m/s, 44° | - | - |
| 1778027201 | 24.44° C | 42% | 1012.5 hPa | 0 mm | 0.89 m/s, 349° | - | - |
| 1778026897 | 24.44° C | 42% | 1012.3 hPa | 0 mm | 0.45 m/s, 97° | - | - |
| 1778026593 | 24.44° C | 41% | 1012.4 hPa | 0 mm | 2.68 m/s, 347° | - | - |
| 1778026291 | 24.44° C | 42% | 1012.3 hPa | 0 mm | 0 m/s | - | - |
| 1778025988 | 25° C | 41% | 1012.3 hPa | 0 mm | 1.34 m/s, 306° | - | - |
| 1778025685 | 25° C | 40% | 1012.1 hPa | 0 mm | 2.24 m/s, 43° | - | - |
| 1778025383 | 25.56° C | 40% | 1012.1 hPa | 0 mm | 1.34 m/s, 83° | - | - |
| 1778025080 | 25.56° C | 40% | 1012.1 hPa | 0 mm | 1.79 m/s, 333° | - | - |
| 1778024777 | 25.56° C | 40% | 1012.1 hPa | 0 mm | 1.34 m/s, 346° | - | - |
* Rain latest hour (hover to see other rain measurements)
** Current wind speed in m/s (hover to see current wind gust speed)